COSMOS 2588

导读

**COSMOS 2588**是独立国家联合体(CIS,即原苏联加盟共和国,实际为俄罗斯)于2025年5月23日发射一颗秘密军用卫星,使用联盟-2.1b火箭从普列谢茨克航天发射场发射升空。公开信息显示,该卫星被部署用于追踪美国侦察卫星,属于俄罗斯太空军事部署的重要环节。(119字)

Basic Information
目录编号:
64095
目录名称:
COSMOS 2588
国际标识:
2025-109A
轨道中心:
EARTH
卫星名称:
COSMOS 2588
卫星全名:
COSMOS 2588
卫星状态:
在轨 (已飞行387 天)
发射日期:
2025-05-23 UTC
国别 :
俄罗斯(独联体) (CIS)
星等 :
--
Orbit Information
数据来源 国际轨道数据 AOE轨道数据
星历时间 2026-06-15T01:15:57+0800
6小时前
查看轨道信息
2026-06-13T01:00:00+0800
2天前
查看轨道信息
半长轴 6856.876km 6856.951km
偏心率 0.000868 0.0008886
轨道倾角 72.971° 72.973°
近地点辐角 109.443° 114.533°
升交点赤经 214.279° 218.831°
平近点角 250.770° 340.340°
近地点 472.787km 472.72km
远地点 484.691km 484.908km
周期 94.178分钟 94.179分钟
每日圈数 15.290206 15.289957
Detailed Information
使用方式:
暂无
2D Orbit Map
3D Orbit Map
Orbit Altitude Analysis Chart
Orbit Inclination Analysis Chart
Orbit Comprehensive Analysis Chart
View Comprehensive Chart